TimeCST,TemperatureF,Dew PointF,Humidity,Sea Level PressureIn,VisibilityMPH,Wind Direction,Wind SpeedMPH,Gust SpeedMPH,PrecipitationIn,Events,Conditions,WindDirDegrees,DateUTC
12:15 AM,41.0,28.4,61,30.11,10.0,ESE,4.6,-,N/A,,Clear,120,2012-12-06 06:15:00
12:35 AM,39.2,28.4,65,30.10,10.0,SE,4.6,-,N/A,,Clear,130,2012-12-06 06:35:00
12:55 AM,39.2,28.4,65,30.10,10.0,SE,4.6,-,N/A,,Clear,130,2012-12-06 06:55:00
1:15 AM,41.0,28.4,61,30.10,10.0,SE,3.5,-,N/A,,Clear,130,2012-12-06 07:15:00
1:35 AM,37.4,26.6,65,30.10,10.0,Calm,Calm,-,N/A,,Clear,0,2012-12-06 07:35:00
1:55 AM,35.6,26.6,70,30.10,10.0,Calm,Calm,-,N/A,,Clear,0,2012-12-06 07:55:00
2:15 AM,35.6,28.4,75,30.09,10.0,Calm,Calm,-,N/A,,Clear,0,2012-12-06 08:15:00
2:35 AM,35.6,28.4,75,30.09,10.0,ESE,4.6,-,N/A,,Clear,120,2012-12-06 08:35:00
2:55 AM,33.8,26.6,75,30.08,10.0,ESE,5.8,-,N/A,,Clear,110,2012-12-06 08:55:00
3:15 AM,35.6,28.4,75,30.07,10.0,ESE,3.5,-,N/A,,Clear,110,2012-12-06 09:15:00
3:35 AM,37.4,28.4,70,30.06,10.0,ESE,5.8,-,N/A,,Clear,120,2012-12-06 09:35:00
3:55 AM,37.4,28.4,70,30.05,10.0,SE,4.6,-,N/A,,Clear,130,2012-12-06 09:55:00
4:15 AM,37.4,28.4,70,30.05,10.0,SE,5.8,-,N/A,,Clear,140,2012-12-06 10:15:00
4:35 AM,37.4,28.4,70,30.05,10.0,SSE,5.8,-,N/A,,Clear,150,2012-12-06 10:35:00
4:55 AM,37.4,28.4,70,30.05,10.0,South,4.6,-,N/A,,Clear,170,2012-12-06 10:55:00
5:15 AM,37.4,30.2,75,30.04,10.0,SSE,5.8,-,N/A,,Clear,160,2012-12-06 11:15:00
5:35 AM,37.4,28.4,70,30.04,10.0,SSE,3.5,-,N/A,,Clear,160,2012-12-06 11:35:00
6:15 AM,37.4,28.4,70,30.05,10.0,South,4.6,-,N/A,,Clear,180,2012-12-06 12:15:00
6:35 AM,37.4,28.4,70,30.04,10.0,South,4.6,-,N/A,,Clear,170,2012-12-06 12:35:00
6:55 AM,35.6,28.4,75,30.03,10.0,SE,4.6,-,N/A,,Clear,140,2012-12-06 12:55:00
7:15 AM,37.4,30.2,75,30.03,10.0,SE,4.6,-,N/A,,Clear,140,2012-12-06 13:15:00
7:35 AM,37.4,30.2,75,30.03,10.0,SSE,5.8,-,N/A,,Clear,150,2012-12-06 13:35:00
7:55 AM,37.4,30.2,75,30.04,10.0,SSE,4.6,-,N/A,,Clear,150,2012-12-06 13:55:00
8:15 AM,39.2,30.2,70,30.03,10.0,SSE,5.8,-,N/A,,Clear,150,2012-12-06 14:15:00
8:35 AM,39.2,32.0,75,30.03,10.0,SSE,6.9,-,N/A,,Clear,160,2012-12-06 14:35:00
8:55 AM,42.8,32.0,66,30.04,10.0,South,5.8,-,N/A,,Clear,170,2012-12-06 14:55:00
9:15 AM,42.8,33.8,70,30.04,10.0,SSE,8.1,-,N/A,,Clear,160,2012-12-06 15:15:00
9:35 AM,44.6,33.8,66,30.04,10.0,South,9.2,-,N/A,,Clear,170,2012-12-06 15:35:00
9:55 AM,44.6,33.8,66,30.03,10.0,SSE,5.8,-,N/A,,Clear,160,2012-12-06 15:55:00
10:15 AM,46.4,33.8,62,30.03,10.0,South,6.9,-,N/A,,Clear,180,2012-12-06 16:15:00
10:35 AM,46.4,35.6,66,30.02,10.0,South,6.9,-,N/A,,Clear,170,2012-12-06 16:35:00
10:55 AM,48.2,35.6,62,30.02,10.0,South,6.9,-,N/A,,Clear,180,2012-12-06 16:55:00
11:15 AM,51.8,37.4,58,30.01,10.0,South,6.9,-,N/A,,Clear,180,2012-12-06 17:15:00
11:35 AM,53.6,39.2,58,29.99,10.0,South,5.8,-,N/A,,Clear,170,2012-12-06 17:35:00
11:55 AM,53.6,39.2,58,29.98,10.0,South,5.8,-,N/A,,Clear,170,2012-12-06 17:55:00
12:15 PM,53.6,39.2,58,29.97,10.0,South,4.6,-,N/A,,Clear,180,2012-12-06 18:15:00
12:35 PM,55.4,39.2,54,29.96,10.0,SSE,4.6,-,N/A,,Clear,160,2012-12-06 18:35:00
12:55 PM,55.4,39.2,54,29.95,10.0,SSE,4.6,-,N/A,,Clear,160,2012-12-06 18:55:00
1:15 PM,55.4,39.2,54,29.94,10.0,SSE,4.6,-,N/A,,Clear,150,2012-12-06 19:15:00
1:35 PM,55.4,39.2,54,29.94,10.0,South,3.5,-,N/A,,Clear,170,2012-12-06 19:35:00
1:55 PM,55.4,41.0,58,29.93,10.0,East,4.6,-,N/A,,Clear,100,2012-12-06 19:55:00
2:15 PM,57.2,41.0,55,29.92,10.0,ESE,6.9,-,N/A,,Clear,120,2012-12-06 20:15:00
2:35 PM,57.2,41.0,55,29.91,10.0,SE,5.8,-,N/A,,Clear,130,2012-12-06 20:35:00
2:55 PM,57.2,42.8,59,29.92,10.0,SE,5.8,-,N/A,,Clear,130,2012-12-06 20:55:00
3:15 PM,57.2,41.0,55,29.91,10.0,SSE,4.6,-,N/A,,Clear,150,2012-12-06 21:15:00
3:35 PM,57.2,41.0,55,29.90,10.0,SSE,6.9,-,N/A,,Clear,150,2012-12-06 21:35:00
3:55 PM,55.4,41.0,58,29.90,10.0,SSE,4.6,-,N/A,,Clear,150,2012-12-06 21:55:00
4:15 PM,55.4,41.0,58,29.90,10.0,ESE,4.6,-,N/A,,Clear,120,2012-12-06 22:15:00
4:35 PM,55.4,41.0,58,29.90,10.0,SE,3.5,-,N/A,,Clear,130,2012-12-06 22:35:00
4:55 PM,51.8,39.2,62,29.91,10.0,Calm,Calm,-,N/A,,Clear,0,2012-12-06 22:55:00
5:15 PM,51.8,39.2,62,29.90,10.0,Calm,Calm,-,N/A,,Clear,0,2012-12-06 23:15:00
5:35 PM,51.8,39.2,62,29.90,10.0,Calm,Calm,-,N/A,,Clear,0,2012-12-06 23:35:00
5:55 PM,48.2,39.2,71,29.91,10.0,ENE,3.5,-,N/A,,Clear,60,2012-12-06 23:55:00
6:15 PM,48.2,39.2,71,29.91,10.0,NE,5.8,-,N/A,,Clear,50,2012-12-07 00:15:00
6:35 PM,48.2,41.0,76,29.92,10.0,NE,5.8,-,N/A,,Clear,40,2012-12-07 00:35:00
6:55 PM,50.0,39.2,66,29.92,10.0,NE,5.8,-,N/A,,Clear,50,2012-12-07 00:55:00
7:15 PM,48.2,39.2,71,29.92,10.0,ENE,6.9,-,N/A,,Clear,60,2012-12-07 01:15:00
7:35 PM,48.2,39.2,71,29.92,10.0,ENE,5.8,-,N/A,,Clear,60,2012-12-07 01:35:00
7:55 PM,46.4,39.2,76,29.91,10.0,ENE,4.6,-,N/A,,Clear,70,2012-12-07 01:55:00
8:35 PM,46.4,39.2,76,29.91,10.0,ENE,4.6,-,N/A,,Clear,70,2012-12-07 02:35:00
8:55 PM,46.4,39.2,76,29.91,10.0,NE,5.8,-,N/A,,Clear,50,2012-12-07 02:55:00
9:15 PM,46.4,39.2,76,29.91,10.0,NE,6.9,-,N/A,,Clear,50,2012-12-07 03:15:00
9:35 PM,46.4,39.2,76,29.91,10.0,NE,6.9,-,N/A,,Clear,50,2012-12-07 03:35:00
9:55 PM,46.4,39.2,76,29.92,10.0,ENE,4.6,-,N/A,,Clear,70,2012-12-07 03:55:00
10:15 PM,46.4,39.2,76,29.92,10.0,East,3.5,-,N/A,,Clear,80,2012-12-07 04:15:00
10:35 PM,44.6,39.2,81,29.92,10.0,East,3.5,-,N/A,,Clear,100,2012-12-07 04:35:00
10:55 PM,44.6,39.2,81,29.92,10.0,East,4.6,-,N/A,,Clear,100,2012-12-07 04:55:00
11:15 PM,44.6,39.2,81,29.91,10.0,East,4.6,-,N/A,,Clear,100,2012-12-07 05:15:00
11:35 PM,46.4,41.0,81,29.90,10.0,ESE,4.6,-,N/A,,Clear,110,2012-12-07 05:35:00
11:55 PM,46.4,41.0,81,29.90,10.0,ESE,5.8,-,N/A,,Clear,120,2012-12-07 05:55:00